Wind_Speed
108 110 111 113 113 114 114 114 114 115 115 115 115 114 114 113 113 113 114 114 115 116 117 118 119 120 121 122 123 124 125 126 126 126 126 126 126 126 127 127 127 127 126 126 126 126 126 127 127 127 128 128 128 129 130 131 131 131 131 131 131 132 133 133 132 132 133 134 134 133 133 132 132 133 133 134 135 136 136 136 136 135 135 134 134
106 108 109 111 112 113 114 115 115 116 116 116 116 116 116 116 115 114 113 114 114 115 116 117 118 119 120 122 123 124 125 126 127 127 127 127 127 127 127 128 128 128 128 128 128 128 128 128 128 128 129 129 129 129 129 130 130 130 130 129 129 130 131 131 131 131 131 132 133 133 133 132 131 131 131 131 133 135 136 136 136 135 134 133 133
106 107 108 109 111 112 113 114 114 115 116 116 116 117 117 117 117 117 116 115 114 114 115 116 117 117 119 120 122 123 125 126 127 127 127 127 128 128 128 128 129 129 130 130 130 130 130 130 130 130 131 131 131 131 131 131 130 130 129 129 130 130 130 131 131 130 130 131 132 133 133 132 131 130 130 129 130 131 133 133 134 134 133 132 131
106 107 108 109 109 110 111 112 113 114 115 116 116 116 117 117 118 118 118 117 116 115 114 114 115 116 117 118 119 121 123 125 126 127 128 128 128 129 129 129 129 130 130 131 131 131 132 132 132 133 133 133 133 133 133 133 132 132 131 131 131 131 132 132 132 132 131 131 132 133 133 132 131 130 130 129 128 129 130 131 132 132 132 132 131
105 106 107 108 109 110 111 111 113 113 114 115 116 116 116 116 117 117 118 118 118 118 117 116 115 115 116 117 117 118 120 122 123 125 127 128 128 129 129 130 130 130 131 131 132 132 132 133 134 134 135 135 135 135 135 135 135 134 134 133 134 134 134 134 134 134 133 133 133 134 134 134 133 132 131 130 130 129 130 130 132 132 133 133 133
102 103 105 106 108 109 110 111 112 113 114 115 115 116 116 116 116 116 116 117 117 118 118 118 117 116 116 116 116 117 118 119 120 122 124 125 126 128 129 130 131 131 131 132 132 133 133 133 134 135 136 136 136 136 137 136 136 136 135 135 135 135 136 136 136 136 136 135 135 135 136 135 135 134 133 133 132 131 131 131 132 133 134 134 134
99 100 101 103 105 107 108 110 111 112 113 114 115 116 116 116 115 115 115 115 116 116 117 117 118 118 117 117 116 117 117 118 118 119 121 122 123 125 126 128 129 131 132 132 132 133 133 134 134 135 136 137 137 137 137 137 136 136 136 136 136 136 137 137 137 138 137 137 136 136 136 137 136 136 135 135 134 134 133 133 133 134 135 136 136
95 96 97 98 100 103 105 107 108 110 111 113 114 115 115 116 115 115 115 115 115 115 115 115 116 117 117 117 117 117 117 117 118 118 119 119 120 122 123 125 127 128 130 131 132 132 133 134 134 135 137 137 138 138 138 137 137 137 137 137 137 137 137 138 138 137 137 136 136 136 136 136 136 136 136 136 135 134 134 134 134 134 135 136 136
92 93 94 94 96 98 100 102 104 106 108 110 112 113 114 115 115 115 114 114 114 114 114 114 114 115 115 116 116 116 116 117 117 118 118 118 119 119 121 122 124 125 127 128 130 131 132 133 134 135 136 137 138 138 138 138 137 137 138 138 138 138 138 138 138 138 137 136 136 136 136 136 136 137 137 136 135 135 135 135 134 134 135 136 137
89 90 91 92 93 94 96 98 99 101 103 105 108 110 111 112 114 114 114 114 114 114 114 114 114 114 114 115 115 115 115 116 116 117 118 118 118 119 119 120 121 123 124 125 127 128 129 130 131 133 134 135 137 137 137 137 137 138 138 138 139 139 139 139 139 139 138 138 138 138 137 137 137 138 138 138 137 137 137 136 136 136 136 137 138
85 87 88 89 91 92 93 94 95 96 98 100 103 105 106 108 110 112 113 113 113 114 114 114 114 114 114 114 115 115 115 115 115 116 116 117 118 118 119 119 120 121 122 123 124 125 126 127 128 129 131 132 134 135 135 135 136 136 137 138 138 138 138 138 139 139 139 139 139 139 138 138 139 139 140 140 139 139 138 138 137 137 137 137 138
81 83 84 86 88 89 90 91 92 92 93 94 97 99 101 103 105 108 110 111 112 112 113 114 114 114 114 114 114 115 115 115 115 115 115 116 116 117 118 119 119 120 120 121 122 124 125 126 126 127 128 129 130 131 132 132 133 133 134 135 136 137 137 137 137 138 138 138 138 138 138 139 139 140 141 141 141 140 139 139 138 138 138 137 138
77 79 80 82 83 85 86 87 88 89 89 90 92 93 95 98 100 103 106 108 109 109 110 111 113 113 114 114 114 114 115 115 115 114 114 115 115 116 117 118 118 119 119 120 121 122 123 124 124 125 126 127 128 129 129 130 130 130 131 131 132 133 133 134 134 135 135 136 136 136 137 137 138 139 139 140 140 140 139 139 138 138 138 137 137
73 74 75 77 79 81 83 84 85 86 86 87 88 89 90 92 94 97 99 103 105 106 108 108 110 111 112 113 113 114 114 114 114 114 113 114 115 115 116 117 117 117 118 118 119 120 120 121 122 123 124 125 126 127 127 128 128 128 128 129 129 129 130 130 131 131 131 132 132 132 133 134 135 135 136 137 137 137 136 136 136 136 136 135 135
71 71 72 73 74 76 78 80 82 83 83 84 86 87 86 87 89 91 93 96 99 102 104 106 107 108 109 111 112 112 113 113 113 113 113 113 114 114 115 115 115 116 117 117 118 118 118 119 120 120 121 123 124 125 125 126 126 126 126 126 126 127 127 127 127 127 128 128 128 129 129 130 131 131 132 133 133 133 133 133 133 133 133 133 133
67 68 69 70 71 72 74 76 78 80 81 81 83 85 84 83 84 86 88 90 93 96 99 101 103 105 106 107 108 110 111 111 111 111 111 112 113 113 114 114 114 114 115 116 116 117 117 118 118 118 119 120 121 122 123 123 123 123 123 124 124 124 124 124 124 124 125 125 125 125 126 127 127 128 128 129 129 130 130 130 130 130 130 130 130
62 63 65 66 68 69 71 72 74 76 77 78 80 82 81 80 80 82 83 84 86 89 92 95 98 100 103 104 105 106 107 108 109 109 109 110 111 112 112 112 112 113 113 114 115 115 116 116 117 117 117 118 119 120 120 120 121 121 121 121 121 121 121 121 121 122 122 123 123 123 123 124 124 124 125 125 126 127 127 127 127 128 128 128 127
60 61 61 62 64 65 67 69 70 71 73 74 77 79 78 76 76 77 78 80 81 83 85 88 91 95 98 101 102 103 104 105 107 107 108 109 110 111 111 111 111 112 111 112 113 113 114 114 114 115 115 116 117 117 118 118 118 118 119 119 119 119 119 119 120 120 121 121 121 121 122 122 122 122 122 123 123 124 124 125 125 125 125 125 125
61 61 60 60 61 62 62 64 66 67 69 71 74 75 74 73 73 74 75 76 78 79 79 81 85 88 92 96 97 99 100 102 103 104 106 107 109 110 109 109 110 110 110 111 112 112 112 112 112 113 113 114 114 115 115 115 115 116 116 116 116 117 117 117 117 118 119 119 120 120 120 120 120 121 121 121 121 122 122 122 123 123 123 123 124
62 61 60 59 59 59 59 60 61 63 66 69 71 71 70 70 72 73 74 75 76 76 77 77 80 83 86 90 92 93 95 97 99 101 103 104 107 108 109 108 109 109 109 109 110 111 111 111 111 112 112 112 112 113 112 112 112 112 113 113 114 114 114 114 114 115 117 117 118 119 119 119 119 120 120 120 121 121 121 121 122 122 122 123 123
60 59 58 57 57 57 57 58 58 59 61 64 66 67 68 70 72 74 75 76 76 76 75 75 76 79 82 85 87 88 90 92 94 96 98 100 103 105 107 107 107 107 108 108 109 109 109 110 110 111 111 111 111 111 111 110 110 110 111 111 111 111 111 111 112 113 114 115 116 116 117 117 118 119 119 120 120 120 120 121 121 121 122 122 122
58 57 56 55 54 54 55 56 55 55 57 58 61 63 65 68 71 73 74 75 76 75 74 73 74 76 78 81 83 85 86 88 89 91 93 95 98 101 103 104 105 106 106 107 108 108 108 109 110 110 110 110 110 110 109 109 109 109 109 109 110 110 110 110 110 111 112 113 114 114 115 116 116 116 117 117 117 118 118 118 118 119 119 120 120
56 55 53 53 52 51 52 52 52 53 53 54 56 58 60 62 66 69 70 72 73 73 72 72 72 74 76 78 80 82 83 84 86 87 89 90 93 95 98 100 102 103 104 105 106 107 108 109 109 109 109 109 109 109 109 109 108 108 108 108 109 109 109 110 110 110 111 112 112 113 113 113 113 113 113 113 114 114 114 115 115 115 116 116 116
54 52 51 50 50 49 49 49 49 50 50 51 52 53 55 57 60 63 65 67 68 69 70 70 71 72 74 76 78 80 81 82 83 84 85 87 88 90 92 95 97 99 101 102 104 105 107 107 108 108 108 108 108 108 108 108 108 107 107 108 108 109 109 109 109 110 110 111 111 111 111 111 111 112 112 112 112 112 113 113 113 113 113 113 114
51 50 48 48 47 47 46 46 46 47 47 48 49 50 51 53 55 57 59 61 63 64 66 67 69 71 72 74 76 78 79 80 80 81 82 84 85 87 89 91 93 95 96 98 100 102 103 105 106 106 106 106 106 106 106 106 106 106 106 106 107 107 108 108 108 109 109 110 110 110 111 111 111 111 111 111 111 111 112 112 112 112 112 112 112
47 47 46 45 45 44 44 43 44 44 45 45 46 47 49 50 52 53 55 56 58 60 62 64 66 68 70 72 74 76 77 77 78 79 80 82 83 85 86 88 89 91 92 94 95 97 99 101 102 103 103 103 104 104 104 104 104 104 104 104 104 105 106 106 106 107 107 108 108 109 109 109 109 110 110 110 110 110 110 110 111 111 111 111 111
44 44 43 43 43 42 42 41 41 41 42 42 43 45 46 48 49 51 52 53 55 57 59 61 63 65 67 69 71 73 73 74 76 77 79 80 81 82 84 85 86 87 88 90 91 93 94 96 97 98 99 100 100 101 101 101 101 101 101 101 102 103 103 104 104 104 105 106 106 107 107 107 107 108 108 108 108 108 108 108 109 109 109 109 109
41 41 41 41 41 40 40 39 38 38 39 40 41 43 44 45 46 48 49 50 52 54 56 59 61 63 65 66 68 69 70 71 73 75 76 77 79 80 81 82 82 83 84 85 87 88 89 90 92 93 94 95 96 96 97 97 98 98 99 99 100 100 101 102 102 102 103 104 104 105 105 105 105 105 106 106 106 106 105 105 106 106 106 106 106
39 39 39 39 39 39 38 37 37 36 37 38 39 40 41 42 44 45 46 48 50 52 54 56 58 60 62 63 64 65 67 69 70 72 73 74 76 77 78 78 78 79 80 81 82 82 84 85 87 88 89 89 90 91 92 93 94 95 96 97 97 98 98 99 100 100 100 101 101 102 102 102 102 102 103 103 103 103 102 102 101 101 101 101 102
37 37 37 37 37 37 36 36 35 35 35 36 37 38 39 40 41 42 44 46 48 49 51 53 55 56 58 59 61 63 65 66 68 69 70 72 73 74 74 74 74 75 75 76 77 78 80 81 82 83 84 84 85 86 88 89 90 91 92 93 94 94 95 96 96 97 97 97 97 98 98 98 98 98 99 99 99 99 99 99 99 99 99 99 100
36 35 35 35 35 35 35 34 34 34 34 34 35 36 38 39 40 41 42 43 45 47 49 51 52 53 54 56 58 60 62 63 65 66 67 69 70 71 71 71 71 71 71 72 74 75 76 76 77 78 79 80 81 82 83 85 86 87 88 89 90 90 91 91 92 92 92 93 93 94 94 94 94 94 94 95 95 95 96 97 97 98 99 99 99
35 34 34 34 34 34 33 33 32 32 32 32 33 35 36 37 38 39 40 41 43 44 46 48 49 50 52 54 56 57 59 61 62 64 65 67 68 68 67 68 68 68 69 70 71 72 72 73 74 75 76 77 78 79 80 81 81 82 83 84 85 86 87 87 88 88 88 89 90 90 90 91 91 91 92 93 93 94 95 95 96 97 98 98 98
35 34 34 33 33 33 33 32 31 31 31 31 31 33 34 36 37 38 39 40 41 42 43 44 46 47 49 51 53 55 56 58 60 61 63 64 65 64 64 65 66 67 67 68 69 69 70 71 71 72 73 74 75 75 76 77 78 79 80 81 82 84 84 84 84 85 86 87 87 88 89 89 90 90 91 92 92 93 94 94 95 96 96 96 95
35 34 33 33 32 32 32 32 31 30 30 29 30 31 32 34 35 36 37 38 39 40 41 42 43 45 46 49 50 52 54 55 57 58 60 61 61 61 62 63 64 65 65 66 67 68 69 69 70 70 71 72 73 74 74 75 76 77 78 79 80 82 83 83 83 83 84 85 86 87 88 89 89 89 90 90 91 91 92 92 92 92 92 92 92
34 33 32 32 32 32 32 31 31 31 30 29 29 29 30 32 33 34 35 36 37 38 39 40 41 42 44 46 48 49 51 52 54 56 57 58 58 59 60 61 62 63 63 64 66 67 67 68 69 69 70 71 72 72 73 74 75 75 76 77 79 80 81 82 82 83 83 84 85 86 87 87 88 88 88 88 88 89 89 88 89 89 89 89 89
33 32 32 31 31 31 31 31 31 31 30 29 29 29 29 30 31 32 33 34 35 36 38 39 40 41 42 44 45 47 48 49 51 53 54 55 55 56 58 58 59 60 61 62 63 64 65 66 67 68 69 70 70 71 72 73 74 74 75 76 78 79 80 81 81 82 82 83 83 84 84 84 85 85 84 85 85 85 85 85 85 85 86 86 86
33 32 31 31 30 30 30 30 30 30 30 30 29 29 29 30 30 31 32 33 34 35 36 37 39 39 40 42 44 45 46 48 49 50 51 52 53 54 55 56 57 58 59 60 61 62 63 64 65 66 67 68 69 70 71 72 73 74 74 75 76 77 78 78 79 79 80 80 80 80 80 80 81 81 81 81 81 81 82 82 82 82 82 83 83
34 33 32 31 30 29 29 29 30 30 30 30 30 30 29 30 30 31 32 32 33 33 34 36 37 38 39 40 42 43 45 46 47 48 49 50 51 52 53 54 55 56 57 58 59 60 61 62 63 64 65 66 67 68 69 70 70 71 72 72 73 74 74 74 75 75 75 76 76 76 76 77 77 77 78 78 78 78 78 78 78 79 79 80 80
34 33 32 31 31 30 29 29 29 29 29 30 30 30 30 30 30 31 32 32 33 33 34 34 36 37 38 39 40 42 43 44 45 46 48 49 50 51 51 52 53 54 55 56 57 57 58 59 60 61 61 62 63 64 65 66 66 67 68 68 69 70 71 71 71 71 72 72 73 73 73 74 74 74 74 74 75 75 75 75 75 76 76 77 77
34 33 32 32 31 30 29 29 28 28 29 29 29 30 30 31 31 31 32 33 33 34 34 35 35 36 37 38 40 41 42 43 44 45 46 47 48 49 50 51 52 52 53 54 55 55 55 56 57 57 58 59 60 61 62 63 64 64 65 66 66 67 68 68 68 68 69 69 69 69 70 70 71 71 71 71 72 72 72 73 73 74 74 74 75
33 33 32 31 31 30 30 29 29 29 29 29 29 30 30 31 31 32 33 33 34 34 35 35 35 36 37 38 39 40 41 42 43 44 45 46 47 48 49 50 50 51 51 52 53 53 54 54 55 56 56 57 58 59 60 61 61 62 62 62 63 63 64 64 64 64 65 66 66 66 66 67 67 68 68 69 69 69 70 70 71 71 72 72 73
33 32 32 31 31 30 30 30 30 30 30 30 30 30 31 31 32 32 33 34 34 35 35 35 36 36 37 38 39 40 41 42 42 43 44 45 46 46 47 48 49 49 50 51 51 52 52 53 54 54 54 55 55 56 57 57 58 58 59 59 59 59 60 60 61 62 62 63 63 63 64 64 65 65 66 66 67 68 68 69 69 70 71 72 72
34 33 32 31 31 31 30 30 30 31 31 31 31 31 32 32 33 33 34 34 35 35 36 36 36 37 37 38 39 39 40 41 42 43 43 44 45 46 46 47 48 48 49 50 50 51 51 52 52 53 53 53 53 54 54 55 55 55 56 57 57 58 58 59 60 60 61 61 62 62 62 63 63 64 64 65 66 66 67 68 68 69 69 70 70
34 34 33 32 31 31 31 31 31 31 32 32 32 32 32 33 33 34 34 35 36 36 36 37 37 38 38 38 39 40 40 41 41 42 43 44 45 45 46 47 47 48 49 49 50 50 50 50 51 51 51 52 52 52 52 53 53 54 54 55 56 57 57 57 58 59 59 60 60 61 61 62 62 62 63 64 64 65 65 66 66 67 67 67 67
35 34 34 33 33 32 32 32 32 33 33 33 33 33 33 33 33 34 35 35 36 37 37 37 38 38 38 39 39 40 40 41 42 42 43 44 44 45 45 46 46 47 48 48 48 49 49 49 49 49 50 50 50 51 51 51 52 52 53 54 55 56 56 56 57 58 58 58 59 59 60 60 60 61 61 62 62 62 63 63 63 63 64 64 64
35 35 35 35 35 34 34 33 33 33 34 34 34 34 34 34 34 34 34 35 36 36 37 37 38 38 39 39 39 40 41 41 42 42 43 43 44 44 44 45 45 46 46 46 47 47 47 47 47 48 48 49 49 49 49 49 50 51 52 52 53 53 54 55 55 56 56 57 57 57 58 58 59 59 59 59 59 60 60 60 60 60 60 60 60
36 36 35 35 35 36 36 35 35 34 34 34 34 35 34 34 34 34 34 35 35 36 36 37 38 38 39 39 39 40 40 41 42 42 42 43 43 44 44 44 44 45 45 46 46 46 46 46 46 47 48 49 49 48 48 48 48 49 50 50 50 51 52 53 53 54 54 54 55 55 56 56 56 57 57 57 57 57 57 57 57 57 57 58 58
37 36 36 36 36 36 36 37 37 36 36 35 35 35 35 35 34 34 34 34 35 35 36 36 37 38 38 39 39 39 40 40 41 42 42 42 42 43 43 43 44 44 44 45 45 45 45 45 46 46 47 48 48 47 46 46 47 48 48 48 48 49 50 51 51 52 52 52 53 53 53 54 54 54 54 54 54 54 54 54 55 55 55 56 56
37 37 37 37 37 37 37 37 37 37 37 37 36 35 35 35 35 35 34 34 34 35 35 36 36 37 37 38 38 39 39 39 40 40 41 41 41 41 42 42 43 43 43 43 43 43 44 44 44 45 46 46 46 46 46 46 46 46 46 47 47 47 48 48 49 49 50 50 50 51 51 51 51 51 51 51 51 52 52 53 53 53 53 53 53
38 38 37 37 37 37 37 37 37 37 37 37 37 36 36 36 35 35 35 35 34 34 35 35 36 36 37 37 37 38 38 38 39 39 39 39 39 39 40 41 41 41 41 41 41 41 42 42 42 42 43 43 44 44 44 44 44 44 44 44 45 45 45 46 46 46 47 47 48 48 48 48 48 48 48 49 49 50 50 51 51 51 51 51 52
39 39 38 38 38 38 38 38 38 37 37 37 37 37 37 36 36 36 36 35 35 35 35 35 35 36 36 36 37 37 37 38 38 38 38 38 38 38 38 39 39 39 39 39 39 39 39 39 39 39 40 40 41 41 41 41 41 42 42 42 42 42 43 43 43 44 44 44 45 45 45 45 45 45 46 46 47 48 48 48 48 49 50 50 51
Wind_Direction
262 262 262 262 262 261 261 260 259 259 258 258 258 257 256 255 254 253 252 252 251 251 250 250 249 249 249 249 249 249 249 249 249 249 249 249 249 249 249 249 250 250 250 250 250 251 251 251 251 252 252 252 252 253 254 255 255 255 256 256 257 258 258 258 258 258 258 259 259 259 259 259 260 260 261 262 262 262 262 262 262 263 263 264 264
261 261 261 260 260 260 260 260 260 259 259 258 258 258 258 257 257 255 254 253 252 252 251 251 250 249 249 249 249 249 250 250 250 250 250 250 250 249 249 249 250 250 250 251 251 251 251 251 252 252 252 252 252 253 253 254 254 255 256 256 256 257 258 258 258 259 259 259 259 259 259 259 259 260 261 261 262 263 264 264 264 264 264 264 264
261 260 259 259 259 259 259 259 259 259 259 258 258 257 257 258 258 258 257 256 254 253 252 252 251 251 250 249 249 249 250 250 250 250 250 250 250 250 250 250 250 250 251 251 251 252 252 252 252 252 252 253 253 253 253 254 254 255 255 256 256 257 257 257 258 258 259 259 259 260 260 259 259 259 260 261 262 263 264 264 265 265 265 265 264
261 260 259 258 258 257 257 257 257 258 258 258 257 257 256 256 256 257 257 257 257 256 254 253 252 252 251 251 250 250 250 250 250 250 251 251 250 251 251 250 250 250 251 251 251 252 252 253 253 253 253 253 254 254 254 254 254 255 255 256 256 257 257 257 258 258 258 259 259 260 260 260 260 260 260 260 261 262 263 264 264 265 265 265 265
262 261 260 259 258 257 256 256 256 256 256 256 256 256 256 255 255 255 255 255 256 257 256 255 254 253 252 252 251 251 251 250 250 250 250 251 251 251 251 251 251 251 251 251 251 252 252 253 253 253 254 254 254 254 254 255 255 255 255 255 256 257 257 258 258 258 258 259 259 260 260 261 261 261 261 261 261 261 262 263 264 264 265 265 265
262 261 261 260 259 259 258 257 256 255 255 255 255 255 255 255 254 254 254 253 254 254 255 255 255 255 254 253 253 252 252 251 251 251 251 251 251 251 251 251 252 252 252 251 252 252 252 252 253 254 254 255 255 255 255 256 256 256 256 256 256 257 257 258 258 258 259 259 259 260 261 261 261 261 262 262 262 262 262 262 263 264 265 265 265
263 262 261 260 260 259 259 258 257 256 256 255 254 254 254 254 254 254 253 253 252 252 253 253 254 254 254 254 253 253 253 252 252 252 252 251 251 251 251 251 251 252 252 252 252 252 252 252 253 253 254 255 255 255 256 256 257 257 257 258 258 258 258 258 258 259 259 259 260 260 261 261 262 262 262 262 262 263 263 263 263 264 264 265 266
265 264 262 261 260 259 259 258 258 257 257 256 256 255 255 254 254 253 253 253 252 252 252 252 252 252 252 253 252 253 253 253 252 252 252 252 252 252 252 252 252 252 252 252 253 253 253 253 253 253 254 255 255 255 256 256 257 257 258 258 259 259 259 259 259 260 260 260 261 261 262 262 262 263 263 263 263 264 264 264 264 264 265 266 266
265 264 263 262 261 260 259 258 257 257 257 256 256 256 256 256 255 254 254 253 253 252 252 251 251 251 252 252 251 251 251 251 252 252 252 252 252 252 252 252 252 252 252 252 253 253 253 253 254 254 254 255 255 256 256 256 257 257 257 258 258 259 260 260 261 261 261 262 262 262 263 263 263 264 264 264 264 264 264 264 265 265 265 266 266
266 265 264 263 262 261 260 259 257 257 256 256 256 256 256 256 256 256 255 254 253 253 252 252 251 251 251 251 251 251 251 250 251 251 252 252 252 252 252 252 253 253 253 253 253 253 253 254 254 254 255 255 256 256 257 257 257 258 258 258 259 259 260 260 261 262 262 262 263 263 263 264 264 265 265 265 265 265 265 265 265 265 265 266 266
266 266 265 264 264 262 261 260 259 258 256 255 255 255 255 255 255 255 256 256 255 254 253 252 252 251 251 251 251 251 251 251 250 250 250 251 251 252 252 253 253 253 253 253 254 254 254 254 254 254 255 255 256 257 257 257 258 258 258 259 259 259 260 260 261 261 262 262 263 263 264 264 265 265 265 266 266 266 266 266 266 266 266 266 267
266 266 265 265 265 264 264 263 262 260 259 257 256 255 255 254 254 254 254 255 255 255 254 254 253 252 251 251 250 250 251 251 250 250 250 250 251 251 252 252 252 253 253 253 253 254 254 255 255 255 255 256 256 257 257 258 258 258 258 259 259 260 260 260 261 261 262 262 263 263 264 264 264 265 265 266 266 266 266 267 267 267 267 267 267
267 266 266 266 266 266 265 265 264 263 262 260 259 257 256 255 254 253 253 254 254 254 254 254 254 254 253 252 251 250 250 250 250 250 250 250 250 250 251 251 252 252 253 253 253 253 254 254 255 255 256 256 257 257 257 258 258 258 259 259 259 260 260 261 261 261 262 262 263 263 263 264 264 265 265 265 266 266 267 267 267 267 267 267 267
269 267 266 266 265 265 265 265 265 264 263 262 261 259 258 256 255 254 253 253 253 253 253 253 254 254 254 253 253 252 251 250 250 250 250 250 250 250 250 251 251 252 252 253 253 253 254 254 254 255 255 256 256 257 257 258 258 259 259 259 260 260 261 261 261 262 262 262 263 263 263 264 264 264 265 265 266 266 266 267 267 267 267 268 268
271 270 269 267 266 265 265 264 264 264 263 263 262 261 259 258 257 256 254 254 254 253 253 253 253 253 253 253 254 253 253 252 252 251 251 250 250 250 250 251 251 252 252 253 253 254 254 254 254 255 255 256 256 257 257 258 258 259 259 260 260 261 261 261 262 262 263 263 263 263 264 264 264 265 265 265 266 266 266 266 267 267 267 268 268
271 271 270 269 268 266 265 263 263 263 263 262 262 261 261 259 258 257 256 255 254 254 254 254 254 254 254 253 253 254 254 254 254 253 252 252 251 251 251 251 251 251 252 252 253 253 254 254 255 255 255 256 256 257 257 258 259 259 260 260 261 261 261 262 262 263 263 264 264 264 264 264 265 265 265 266 266 266 266 267 267 267 267 267 267
272 271 270 270 269 268 266 264 263 263 262 262 262 262 261 260 259 259 258 257 256 255 255 254 254 254 254 254 253 253 253 254 254 254 254 254 253 253 252 252 252 252 252 252 253 253 253 254 254 255 255 256 257 257 258 258 259 260 260 261 261 262 262 263 263 264 264 264 264 264 264 264 265 265 265 265 266 266 266 266 267 267 267 267 267
276 274 272 271 269 268 267 266 264 263 262 261 260 260 261 261 260 259 258 258 258 256 255 255 255 254 254 254 254 254 253 253 254 254 254 255 255 255 254 254 254 253 253 253 253 253 254 254 254 255 255 255 256 257 257 258 259 259 260 260 261 262 262 263 263 264 264 264 264 265 265 265 265 265 265 265 265 265 266 266 266 266 267 267 267
280 278 276 274 272 270 268 267 265 264 262 260 259 259 259 259 258 257 256 256 256 255 255 254 254 254 254 254 255 255 254 254 254 254 254 254 255 255 255 255 255 255 255 255 255 255 255 255 255 256 256 256 256 256 257 257 258 259 259 260 260 261 261 262 262 263 263 264 264 264 265 265 265 265 265 265 266 266 266 266 267 267 267 267 267
281 280 279 277 276 274 272 269 266 264 262 261 260 259 257 256 254 253 252 251 251 251 251 252 252 252 253 254 254 254 255 255 255 254 254 254 254 255 255 255 255 256 256 256 256 256 256 256 256 256 257 257 257 257 257 258 258 259 259 260 260 260 261 261 262 262 263 263 264 264 264 265 265 265 265 266 266 266 266 266 267 267 267 267 267
281 281 280 279 278 276 274 272 269 266 263 261 261 259 257 255 253 251 250 249 248 248 248 248 249 250 251 252 253 253 254 254 255 255 254 254 254 255 255 256 256 256 256 256 256 256 257 257 257 257 257 257 258 258 258 259 259 259 260 260 260 261 261 262 262 262 262 263 263 264 264 264 265 265 265 265 265 266 266 266 266 267 267 267 267
282 282 281 280 278 276 274 273 271 268 265 263 261 259 258 257 255 254 252 251 249 248 247 246 246 247 248 249 250 251 252 253 254 254 254 254 254 254 255 256 256 256 256 257 257 257 257 257 258 258 258 258 259 259 259 259 259 260 260 261 262 262 262 262 263 263 263 264 264 264 264 264 264 264 264 265 265 265 266 266 266 266 267 267 267
283 283 282 281 280 277 275 274 272 270 267 264 261 260 259 258 258 257 256 254 252 250 248 246 245 245 246 247 248 249 250 251 252 253 254 254 254 255 255 255 256 256 256 257 257 257 257 257 258 258 258 259 259 259 260 260 260 261 261 262 262 263 263 263 264 264 264 264 265 265 265 265 265 266 266 266 267 267 267 267 267 267 267 267 268
284 283 283 282 280 278 276 275 273 271 268 266 263 261 260 259 258 258 257 256 254 252 250 248 246 245 245 246 247 248 248 249 250 251 252 253 254 255 255 255 256 256 256 256 256 257 257 257 258 258 258 258 259 259 260 260 260 261 261 262 262 262 263 263 264 264 265 265 265 266 266 267 267 268 268 268 268 268 269 269 269 269 269 269 270
284 283 283 282 281 279 277 276 273 272 270 267 265 262 260 258 257 256 255 255 254 253 251 248 246 245 245 245 246 247 248 248 249 250 251 252 253 254 254 255 255 256 256 256 256 256 257 257 257 258 258 258 259 259 259 259 260 260 260 261 261 262 262 263 263 264 264 265 265 266 266 267 267 268 268 268 269 269 269 269 270 270 270 270 271
285 285 284 284 283 281 279 276 274 272 271 269 267 264 262 259 257 255 253 252 252 252 251 249 247 246 245 245 246 247 247 248 248 249 250 250 251 253 254 254 255 256 256 256 256 256 257 257 257 257 258 258 258 259 259 259 259 259 260 260 261 261 261 262 263 263 264 264 265 265 266 266 267 267 268 268 268 269 269 270 270 270 271 271 271
287 286 286 285 284 283 280 278 275 273 271 269 267 264 262 260 257 254 252 251 250 250 250 249 248 247 246 246 246 247 248 248 248 249 249 250 251 252 253 254 255 256 256 257 257 257 257 257 257 257 258 258 258 258 258 259 259 259 260 260 260 261 261 262 262 263 263 264 265 265 266 266 267 267 268 268 268 269 269 270 270 270 271 271 271
289 288 288 287 286 284 282 280 277 275 272 270 267 265 262 260 258 255 253 251 250 250 249 249 249 248 248 247 247 248 248 248 248 249 249 250 251 252 253 254 255 256 257 257 258 258 258 258 258 257 257 257 257 258 258 258 259 259 259 260 260 261 261 262 262 263 263 264 265 265 266 266 267 267 268 268 268 269 269 269 269 270 270 271 271
291 290 290 289 288 286 285 282 280 277 274 271 269 266 263 261 259 256 254 253 251 251 250 250 249 249 249 249 249 249 248 248 249 249 250 250 251 252 254 255 256 256 257 257 258 258 257 257 257 257 257 257 257 257 257 258 258 258 259 259 260 260 261 261 262 262 263 263 264 265 265 266 266 267 267 268 269 269 269 269 270 270 270 270 271
294 293 292 291 289 288 286 284 282 279 276 273 271 268 265 263 260 258 256 254 253 252 251 250 250 250 250 250 249 249 249 249 250 250 251 251 252 253 254 255 256 256 257 257 257 257 257 257 256 256 256 256 256 256 257 257 257 258 258 259 259 260 260 261 261 262 263 263 264 265 265 266 266 267 267 268 269 269 270 271 271 271 271 271 271
297 295 294 292 291 289 288 286 284 281 278 276 273 270 267 264 262 259 257 255 254 252 252 251 251 251 250 250 250 250 250 250 251 251 252 253 253 254 255 255 256 256 256 256 256 256 256 256 257 257 256 256 256 256 257 257 257 258 258 259 260 260 261 261 262 263 263 264 264 265 265 266 267 267 268 269 269 270 270 271 272 272 272 272 272
300 298 297 295 293 291 289 287 285 282 280 277 274 271 268 266 264 261 259 257 255 254 253 252 251 251 251 251 251 251 251 251 252 252 253 253 254 255 256 256 256 256 256 256 257 257 257 257 257 257 257 257 257 257 257 258 258 259 259 260 261 261 262 262 263 264 265 265 266 266 267 267 268 268 269 269 270 270 270 271 271 271 272 272 272
302 301 299 297 295 293 291 288 286 284 281 279 276 273 270 268 266 264 262 260 258 256 255 254 253 252 251 251 251 251 252 252 253 253 254 254 255 256 256 256 257 257 257 257 257 258 258 257 257 257 257 257 258 258 258 259 259 260 260 261 262 262 263 263 264 265 266 266 267 267 268 268 268 269 269 269 269 270 270 270 271 271 272 272 273
303 302 301 299 296 294 292 290 288 285 283 281 278 275 272 270 268 266 264 262 261 259 257 256 255 254 254 253 253 253 253 254 254 254 255 256 256 257 257 257 257 257 257 258 258 258 259 259 259 259 259 259 259 259 260 260 260 261 261 262 262 263 264 265 265 265 266 266 267 267 268 268 268 268 269 269 269 270 270 271 271 271 272 272 273
305 303 301 300 298 296 294 292 290 287 285 283 280 278 275 273 270 268 266 265 263 262 260 259 258 257 256 256 256 255 255 255 256 256 256 257 257 257 257 258 258 258 258 258 258 259 259 260 260 260 260 261 261 261 261 262 262 262 263 263 263 264 264 265 265 265 265 266 266 266 267 267 268 268 269 269 270 270 270 271 271 271 272 272 272
306 304 303 301 299 297 295 293 291 289 287 285 282 280 278 276 273 271 269 267 265 264 262 261 260 259 258 258 258 258 257 257 257 257 258 258 258 258 258 258 258 258 258 258 259 259 259 260 260 261 261 261 261 262 262 262 263 263 263 263 263 264 264 264 265 265 265 265 265 266 266 267 267 268 268 268 269 269 270 270 270 271 271 271 272
307 305 304 302 300 298 296 294 292 290 288 286 284 282 280 277 276 274 272 270 268 266 264 263 262 261 260 259 259 259 259 259 258 258 259 259 259 259 259 259 259 259 259 258 259 259 259 259 260 260 260 261 261 262 262 262 262 262 262 262 263 263 263 264 264 265 265 266 266 267 267 267 268 268 268 268 268 268 269 269 269 270 270 270 271
307 306 305 303 301 299 297 295 293 291 289 287 285 284 281 279 277 275 274 272 271 268 267 265 264 263 262 261 260 260 260 260 260 260 260 260 260 260 260 260 260 260 259 259 259 259 259 260 260 260 260 261 261 261 262 262 263 263 264 264 265 265 265 265 266 266 267 267 268 268 268 268 268 268 268 268 268 269 269 269 270 270 270 271 271
308 306 305 304 302 299 297 295 293 291 290 288 287 285 283 281 279 277 275 274 273 271 269 267 266 265 265 264 263 262 262 262 262 262 263 262 262 262 262 262 261 261 261 261 261 261 261 261 261 262 262 262 263 263 264 264 265 265 265 266 266 266 267 267 267 267 268 268 268 268 268 268 268 268 269 269 269 270 270 270 270 270 271 271 271
308 307 305 304 303 301 299 296 294 292 291 289 287 286 284 282 281 279 277 276 274 273 272 270 269 268 267 266 266 265 264 264 264 264 264 264 265 265 264 264 264 264 264 264 264 264 264 264 264 264 265 265 265 265 265 265 265 265 266 266 266 266 267 267 267 268 268 268 268 268 268 268 269 269 269 269 270 270 270 271 271 271 271 272 272
309 307 305 304 303 301 300 298 296 294 292 290 288 287 285 283 282 280 278 277 275 274 273 271 270 269 268 268 267 267 266 266 265 265 265 265 265 265 265 266 266 266 266 266 266 266 266 266 266 265 265 265 265 265 265 265 265 266 266 266 266 267 267 267 267 267 267 267 267 268 268 268 269 269 270 270 270 271 271 272 272 273 274 274 274
309 307 305 304 302 301 300 299 297 296 294 292 291 289 287 285 283 281 280 278 276 275 273 272 270 269 268 267 267 267 267 267 267 266 266 266 266 266 266 266 266 266 266 266 266 266 266 265 265 265 265 265 266 266 266 266 267 267 267 268 268 267 268 268 268 268 268 268 268 269 269 269 269 270 271 271 272 272 273 273 274 274 275 275 276
309 308 306 304 302 301 299 298 297 296 295 293 291 290 289 287 286 284 282 280 279 277 276 274 272 271 270 268 267 266 266 266 266 266 266 266 266 266 266 266 266 266 266 266 266 266 266 266 266 266 267 267 267 267 267 267 267 267 268 268 268 268 268 268 268 269 269 269 270 270 270 270 271 271 271 272 272 272 273 273 273 274 274 274 275
309 308 306 304 302 301 299 298 297 296 294 293 292 290 288 287 286 284 283 282 280 279 278 276 275 274 272 271 270 269 268 267 267 266 266 266 266 266 266 266 266 266 266 266 266 266 266 266 266 267 267 267 267 266 266 266 266 266 266 266 267 267 267 268 268 268 269 269 269 269 270 270 270 270 270 271 271 271 272 272 273 273 273 274 275
309 308 307 305 303 301 300 299 298 297 295 294 293 291 289 287 285 284 282 281 280 279 278 277 276 275 274 273 272 271 271 270 269 268 268 267 267 266 266 266 266 266 266 266 267 267 267 267 267 267 267 266 266 266 266 265 265 265 265 265 266 267 267 267 267 267 268 268 268 269 269 270 270 270 270 270 271 271 272 272 273 273 274 275 275
309 308 307 306 305 303 302 300 299 298 297 295 294 293 292 290 287 285 283 282 280 279 278 277 276 275 274 272 271 271 270 269 269 268 268 268 268 268 267 267 267 268 268 268 268 269 269 269 269 269 268 268 267 267 267 267 267 267 267 267 267 268 268 268 268 268 269 269 269 269 270 270 271 271 272 272 272 273 273 274 275 276 276 277 278
309 308 307 306 305 304 303 302 301 299 298 297 296 295 293 292 290 288 286 284 282 281 280 279 277 276 275 274 273 272 271 270 270 270 270 270 270 270 270 270 270 270 270 270 270 270 270 271 271 271 271 270 270 270 270 270 270 269 269 269 269 269 269 270 270 270 270 270 270 271 271 271 272 272 273 274 274 275 276 277 278 278 279 279 280
309 309 307 307 305 304 304 303 302 301 300 298 297 296 294 293 291 289 287 286 284 283 281 280 279 278 277 276 275 274 273 272 272 272 271 271 271 271 271 271 271 271 271 271 271 272 272 272 272 272 272 272 273 273 273 272 271 271 271 271 270 270 270 270 270 270 271 271 271 272 272 272 273 273 274 275 276 277 278 279 279 280 280 281 281
310 309 308 307 306 305 304 304 303 302 301 300 299 297 295 294 292 291 289 287 285 284 282 281 280 279 278 277 276 275 274 273 273 272 272 272 272 271 271 271 271 271 272 272 272 272 272 272 272 272 273 273 274 274 273 272 272 272 271 271 271 270 270 270 270 270 270 271 271 272 273 273 274 275 276 277 278 279 279 279 280 281 281 282 282
311 310 309 308 307 306 305 304 303 302 302 301 300 299 297 295 293 292 290 288 287 285 283 282 281 280 279 278 277 276 276 275 274 273 273 273 272 272 272 271 271 271 271 271 271 271 271 271 271 271 271 272 272 272 272 272 272 272 272 272 271 271 271 271 271 271 271 271 272 273 274 275 276 277 278 278 279 279 280 281 282 282 283 283 283
312 311 310 309 308 307 306 304 304 303 302 301 300 299 298 296 295 293 292 290 288 287 285 284 282 281 280 279 279 278 277 276 276 275 274 274 273 272 272 272 272 272 271 271 271 271 271 271 271 271 271 271 271 271 272 272 273 273 273 273 273 273 272 272 273 273 273 273 274 274 275 276 277 278 278 279 279 280 281 282 283 284 285 285 285
Height
10122 10121 10120 10119 10119 10119 10120 10122 10123 10125 10126 10127 10129 10132 10134 10136 10140 10143 10145 10148 10151 10154 10157 10161 10164 10167 10169 10172 10173 10174 10176 10179 10182 10185 10188 10193 10197 10201 10203 10204 10208 10212 10214 10217 10220 10222 10224 10226 10229 10231 10233 10235 10237 10239 10240 10241 10244 10247 10250 10253 10254 10255 10256 10258 10264 10270 10268 10269 10272 10277 10281 10282 10282 10282 10280 10279 10281 10282 10285 10287 10289 10291 10294 10297 10298
10101 10102 10101 10100 10101 10101 10102 10103 10104 10106 10108 10110 10112 10113 10115 10117 10120 10123 10127 10130 10133 10136 10139 10142 10145 10148 10151 10154 10157 10158 10160 10162 10164 10167 10171 10175 10179 10182 10186 10188 10191 10195 10197 10200 10203 10205 10207 10209 10212 10215 10216 10217 10221 10223 10225 10226 10228 10231 10234 10236 10239 10240 10240 10241 10246 10250 10251 10251 10252 10255 10262 10267 10269 10270 10268 10266 10265 10264 10265 10269 10271 10274 10277 10280 10283
10080 10080 10081 10080 10081 10082 10082 10084 10085 10086 10088 10090 10093 10096 10098 10100 10101 10104 10106 10110 10114 10118 10121 10124 10126 10130 10133 10136 10140 10142 10144 10146 10148 10150 10154 10159 10161 10164 10168 10171 10175 10177 10180 10183 10186 10188 10190 10192 10195 10198 10199 10201 10203 10206 10208 10210 10212 10216 10218 10219 10221 10223 10224 10225 10228 10232 10233 10234 10233 10235 10240 10248 10252 10255 10255 10255 10253 10251 10250 10251 10252 10254 10257 10260 10265
10058 10059 10059 10059 10060 10061 10063 10064 10065 10067 10067 10069 10072 10075 10079 10082 10084 10087 10088 10090 10094 10098 10102 10106 10109 10111 10115 10118 10122 10125 10128 10129 10131 10134 10138 10141 10144 10147 10150 10153 10157 10160 10163 10166 10168 10171 10174 10176 10177 10179 10181 10183 10186 10188 10190 10193 10196 10199 10202 10203 10204 10205 10207 10208 10211 10214 10216 10218 10218 10217 10220 10226 10232 10236 10239 10241 10242 10241 10238 10235 10235 10236 10237 10239 10242
10038 10039 10040 10040 10040 10041 10043 10044 10045 10047 10048 10049 10050 10053 10057 10061 10064 10068 10071 10074 10076 10078 10082 10086 10090 10093 10097 10100 10104 10107 10110 10112 10115 10118 10121 10124 10128 10130 10133 10135 10138 10142 10146 10148 10150 10154 10157 10159 10160 10161 10163 10166 10168 10170 10172 10175 10178 10181 10184 10186 10188 10189 10190 10192 10194 10196 10199 10202 10203 10202 10203 10207 10212 10217 10220 10222 10225 10228 10227 10224 10221 10220 10221 10222 10223
10020 10021 10022 10022 10022 10022 10023 10024 10026 10027 10028 10030 10031 10032 10035 10039 10043 10047 10051 10055 10059 10061 10063 10066 10070 10074 10078 10082 10085 10089 10092 10095 10097 10100 10104 10107 10110 10113 10116 10119 10121 10124 10127 10130 10133 10136 10139 10142 10143 10143 10145 10148 10150 10152 10154 10156 10160 10163 10166 10169 10171 10172 10173 10175 10176 10178 10181 10185 10186 10187 10188 10190 10194 10198 10201 10203 10206 10210 10212 10212 10209 10207 10205 10204 10204
10002 10003 10004 10005 10004 10004 10004 10005 10007 10008 10009 10010 10012 10013 10015 10018 10022 10026 10029 10034 10038 10042 10046 10048 10051 10055 10059 10063 10067 10070 10073 10077 10080 10083 10086 10089 10093 10096 10099 10102 10105 10107 10109 10112 10115 10118 10121 10124 10126 10127 10128 10130 10132 10134 10136 10139 10142 10146 10148 10150 10151 10153 10155 10157 10158 10160 10163 10167 10170 10172 10173 10173 10176 10179 10182 10185 10188 10191 10194 10195 10195 10193 10190 10187 10187
9982 9983 9985 9986 9987 9987 9987 9987 9988 9990 9991 9992 9993 9995 9997 9999 10002 10006 10010 10013 10017 10022 10026 10029 10033 10036 10040 10044 10048 10052 10055 10058 10061 10065 10068 10072 10075 10079 10081 10084 10087 10090 10092 10095 10098 10100 10103 10106 10109 10111 10111 10112 10114 10116 10119 10123 10126 10128 10131 10132 10133 10134 10137 10138 10140 10143 10146 10150 10153 10155 10156 10157 10159 10161 10162 10166 10171 10174 10174 10175 10177 10178 10177 10174 10172
9964 9964 9965 9967 9968 9969 9969 9970 9971 9973 9974 9975 9976 9978 9980 9982 9984 9987 9991 9994 9998 10001 10005 10010 10014 10017 10020 10024 10028 10033 10037 10040 10043 10046 10050 10054 10057 10061 10064 10066 10070 10073 10075 10078 10080 10082 10085 10087 10090 10093 10094 10095 10096 10099 10102 10105 10109 10112 10113 10114 10116 10118 10119 10121 10123 10126 10130 10133 10136 10137 10137 10139 10142 10142 10142 10146 10151 10153 10153 10156 10160 10161 10161 10158 10156
9947 9946 9947 9948 9949 9949 9950 9951 9953 9955 9957 9958 9958 9961 9964 9966 9967 9969 9972 9976 9980 9983 9986 9991 9995 9998 10002 10005 10009 10013 10017 10022 10025 10029 10032 10036 10039 10043 10047 10049 10052 10055 10058 10060 10062 10065 10067 10070 10073 10075 10077 10078 10079 10081 10085 10088 10091 10093 10094 10096 10099 10101 10103 10105 10107 10109 10111 10114 10117 10118 10119 10122 10125 10123 10123 10125 10128 10130 10132 10136 10140 10141 10141 10141 10140
9933 9931 9931 9931 9930 9930 9932 9933 9935 9937 9940 9942 9942 9944 9947 9950 9951 9952 9955 9958 9962 9966 9969 9973 9976 9980 9984 9987 9991 9994 9998 10002 10007 10011 10015 10018 10022 10026 10029 10032 10034 10038 10041 10044 10046 10048 10050 10052 10056 10058 10060 10062 10063 10065 10067 10070 10073 10075 10076 10078 10081 10083 10086 10088 10090 10092 10093 10095 10098 10099 10101 10105 10106 10103 10104 10105 10106 10108 10112 10114 10117 10120 10121 10123 10122
9919 9918 9917 9916 9915 9915 9916 9916 9917 9919 9923 9925 9926 9927 9930 9933 9935 9936 9938 9941 9945 9949 9953 9956 9959 9963 9967 9970 9973 9977 9980 9984 9988 9993 9997 10002 10007 10010 10011 10013 10017 10020 10024 10027 10030 10031 10033 10035 10038 10042 10044 10045 10047 10048 10050 10053 10055 10057 10059 10061 10063 10065 10067 10070 10072 10074 10075 10078 10080 10082 10084 10086 10085 10084 10085 10086 10086 10088 10091 10094 10097 10099 10100 10103 10104
9905 9904 9903 9902 9902 9902 9902 9901 9902 9903 9905 9908 9910 9912 9914 9917 9919 9921 9922 9924 9927 9931 9935 9939 9942 9946 9949 9953 9957 9960 9963 9967 9970 9975 9980 9986 9990 9992 9993 9996 10000 10004 10007 10010 10013 10016 10018 10020 10023 10025 10028 10029 10030 10032 10034 10036 10038 10040 10042 10044 10046 10048 10050 10052 10054 10056 10058 10060 10062 10065 10066 10066 10066 10067 10067 10066 10067 10069 10072 10074 10076 10078 10079 10082 10084
9890 9889 9889 9889 9888 9888 9888 9888 9888 9888 9889 9891 9892 9895 9899 9901 9902 9905 9908 9909 9911 9915 9918 9921 9925 9929 9932 9936 9940 9944 9947 9951 9955 9959 9964 9968 9971 9973 9976 9980 9984 9987 9990 9993 9996 9999 10002 10005 10007 10010 10012 10013 10014 10016 10018 10019 10021 10023 10025 10027 10029 10032 10033 10035 10037 10038 10040 10042 10045 10047 10047 10046 10048 10049 10048 10048 10049 10051 10053 10055 10056 10058 10059 10061 10064
9876 9875 9875 9875 9874 9874 9874 9874 9873 9873 9874 9875 9875 9877 9881 9885 9887 9889 9893 9895 9897 9899 9902 9905 9908 9912 9915 9919 9923 9927 9930 9935 9939 9944 9948 9951 9953 9956 9959 9964 9968 9971 9973 9976 9979 9982 9985 9988 9990 9994 9997 9996 9997 10000 10002 10003 10005 10008 10009 10011 10013 10015 10017 10019 10021 10021 10023 10025 10027 10028 10028 10028 10029 10030 10030 10030 10031 10033 10035 10036 10037 10039 10041 10042 10044
9864 9863 9862 9861 9860 9859 9860 9859 9859 9858 9859 9860 9860 9861 9864 9868 9871 9873 9877 9881 9883 9884 9887 9889 9892 9895 9898 9902 9906 9910 9914 9918 9923 9928 9932 9935 9937 9939 9942 9947 9952 9955 9957 9960 9962 9965 9968 9971 9974 9977 9980 9980 9982 9984 9985 9987 9990 9992 9994 9996 9998 10000 10002 10004 10005 10005 10006 10007 10008 10010 10010 10010 10011 10012 10013 10013 10013 10014 10015 10017 10019 10021 10022 10023 10025
9852 9851 9850 9848 9846 9846 9845 9845 9845 9845 9846 9846 9846 9847 9849 9853 9857 9859 9861 9865 9868 9870 9872 9875 9878 9881 9882 9885 9888 9893 9897 9901 9905 9910 9915 9918 9920 9922 9925 9931 9935 9938 9942 9945 9947 9949 9952 9955 9958 9961 9963 9965 9967 9968 9969 9972 9975 9977 9979 9980 9982 9984 9986 9988 9989 9989 9989 9989 9990 9991 9992 9993 9994 9995 9996 9997 9997 9996 9997 9999 10001 10000 10001 10004 10007
9838 9837 9836 9835 9834 9833 9832 9832 9832 9832 9832 9832 9832 9832 9835 9839 9842 9844 9847 9849 9851 9854 9858 9861 9864 9866 9867 9868 9872 9877 9881 9885 9889 9893 9898 9902 9903 9904 9908 9914 9917 9921 9926 9929 9931 9933 9936 9939 9942 9946 9948 9951 9952 9953 9954 9957 9960 9961 9963 9965 9967 9969 9971 9972 9973 9972 9972 9972 9973 9974 9975 9976 9977 9978 9979 9980 9980 9980 9981 9982 9982 9981 9983 9986 9988
9824 9823 9823 9823 9822 9821 9821 9820 9820 9820 9819 9818 9817 9818 9821 9825 9827 9828 9831 9833 9835 9837 9842 9846 9849 9851 9853 9854 9856 9861 9866 9869 9873 9878 9882 9885 9887 9887 9891 9897 9901 9905 9909 9912 9914 9917 9920 9924 9927 9930 9932 9934 9936 9937 9939 9943 9946 9947 9949 9951 9952 9953 9955 9956 9957 9956 9955 9955 9956 9956 9958 9959 9960 9961 9961 9962 9962 9963 9965 9965 9963 9964 9967 9967 9967
9811 9811 9811 9811 9810 9809 9809 9808 9808 9808 9807 9805 9805 9806 9808 9811 9812 9813 9815 9817 9819 9822 9825 9830 9833 9835 9838 9840 9843 9847 9851 9854 9858 9862 9866 9870 9871 9870 9873 9880 9885 9888 9892 9895 9898 9901 9904 9908 9911 9913 9914 9917 9920 9922 9924 9929 9932 9933 9934 9935 9936 9937 9938 9941 9942 9941 9939 9938 9938 9939 9941 9942 9943 9944 9944 9944 9944 9945 9947 9948 9946 9946 9948 9948 9947
9801 9800 9799 9799 9799 9797 9796 9795 9795 9796 9795 9794 9794 9794 9795 9797 9798 9799 9800 9802 9805 9807 9810 9814 9818 9820 9824 9826 9829 9833 9837 9840 9843 9846 9850 9854 9856 9856 9858 9863 9868 9872 9875 9878 9881 9884 9888 9892 9894 9894 9896 9900 9904 9907 9909 9913 9916 9917 9917 9918 9919 9920 9923 9925 9925 9924 9923 9922 9923 9924 9925 9926 9926 9926 9926 9927 9927 9927 9928 9930 9929 9928 9928 9928 9927
9791 9790 9789 9788 9787 9786 9784 9782 9782 9783 9783 9784 9783 9783 9784 9785 9786 9787 9788 9790 9792 9794 9797 9801 9804 9807 9810 9813 9815 9819 9823 9826 9829 9832 9835 9838 9841 9843 9844 9847 9851 9855 9858 9861 9864 9867 9872 9875 9875 9875 9879 9883 9887 9889 9892 9894 9897 9899 9900 9901 9902 9904 9905 9906 9907 9907 9907 9907 9907 9907 9907 9907 9908 9909 9909 9910 9911 9911 9912 9912 9911 9910 9909 9909 9908
9781 9780 9779 9777 9776 9775 9773 9772 9771 9771 9771 9771 9771 9771 9773 9774 9775 9776 9778 9780 9781 9783 9786 9789 9792 9794 9797 9800 9802 9805 9809 9812 9815 9818 9821 9824 9826 9829 9831 9833 9835 9839 9843 9845 9848 9851 9854 9856 9857 9859 9863 9867 9869 9871 9873 9875 9878 9882 9884 9885 9886 9887 9887 9888 9889 9890 9891 9890 9890 9890 9890 9890 9890 9891 9892 9894 9894 9893 9893 9892 9892 9891 9890 9890 9891
9771 9770 9769 9767 9765 9764 9763 9761 9761 9760 9760 9760 9760 9760 9762 9763 9764 9765 9767 9769 9771 9773 9775 9778 9780 9782 9785 9788 9790 9792 9796 9799 9802 9805 9808 9810 9813 9815 9817 9818 9820 9823 9827 9831 9833 9835 9837 9839 9841 9843 9846 9850 9853 9855 9856 9858 9861 9864 9867 9868 9869 9870 9870 9871 9872 9874 9874 9873 9874 9874 9873 9874 9875 9874 9875 9875 9875 9874 9873 9871 9871 9873 9874 9874 9873
9763 9761 9759 9757 9756 9754 9753 9752 9751 9750 9749 9749 9749 9750 9751 9753 9754 9755 9756 9758 9760 9762 9765 9767 9769 9771 9774 9776 9778 9780 9784 9787 9791 9793 9796 9798 9800 9801 9803 9805 9806 9809 9812 9816 9818 9820 9822 9824 9826 9828 9830 9834 9837 9839 9841 9843 9845 9847 9850 9852 9853 9854 9855 9855 9856 9858 9858 9858 9859 9859 9858 9858 9859 9858 9858 9857 9856 9856 9856 9855 9854 9855 9856 9856 9856
9754 9752 9750 9748 9747 9746 9744 9743 9742 9741 9740 9740 9740 9740 9741 9742 9743 9745 9746 9748 9749 9751 9753 9755 9758 9760 9763 9765 9767 9769 9772 9776 9779 9781 9784 9785 9787 9789 9790 9792 9794 9796 9799 9801 9803 9805 9807 9809 9811 9813 9816 9819 9821 9822 9824 9827 9829 9832 9834 9836 9838 9839 9840 9840 9842 9843 9843 9842 9843 9844 9843 9843 9842 9842 9842 9841 9840 9840 9841 9840 9839 9838 9838 9838 9838
9746 9744 9742 9740 9738 9737 9735 9734 9733 9732 9732 9732 9731 9731 9732 9733 9734 9735 9736 9738 9739 9741 9743 9745 9747 9750 9752 9755 9756 9758 9762 9766 9768 9769 9771 9773 9775 9777 9778 9780 9782 9784 9786 9788 9789 9791 9793 9795 9797 9799 9801 9803 9805 9806 9809 9811 9814 9817 9819 9820 9822 9823 9824 9825 9826 9827 9827 9827 9827 9827 9827 9828 9827 9826 9826 9826 9825 9825 9826 9825 9824 9823 9821 9820 9820
9739 9736 9734 9732 9730 9729 9727 9726 9725 9724 9724 9724 9723 9723 9724 9725 9726 9727 9728 9729 9730 9731 9733 9735 9738 9740 9742 9744 9746 9749 9752 9754 9756 9757 9760 9762 9764 9766 9767 9769 9771 9773 9774 9775 9777 9779 9781 9782 9783 9785 9786 9788 9790 9792 9795 9797 9800 9802 9803 9804 9806 9807 9808 9809 9810 9811 9812 9812 9811 9811 9812 9813 9814 9813 9812 9810 9809 9809 9810 9810 9810 9808 9807 9805 9804
9732 9729 9727 9725 9723 9721 9720 9718 9717 9717 9717 9716 9716 9716 9716 9717 9718 9718 9719 9720 9721 9723 9725 9727 9728 9730 9732 9735 9737 9739 9741 9742 9744 9747 9749 9751 9753 9754 9756 9758 9760 9761 9763 9763 9764 9767 9768 9768 9769 9771 9773 9775 9777 9780 9782 9783 9785 9787 9788 9789 9791 9793 9794 9795 9795 9796 9797 9797 9797 9798 9798 9799 9799 9799 9797 9796 9795 9794 9794 9794 9794 9794 9793 9792 9791
9726 9723 9721 9718 9716 9714 9713 9712 9710 9710 9709 9709 9709 9709 9708 9709 9710 9710 9711 9712 9713 9715 9717 9718 9720 9722 9724 9726 9728 9729 9730 9732 9734 9737 9739 9740 9742 9743 9745 9747 9749 9750 9751 9752 9752 9753 9754 9755 9756 9759 9761 9763 9765 9767 9769 9770 9772 9773 9774 9776 9777 9778 9780 9781 9781 9782 9783 9784 9784 9785 9785 9785 9784 9785 9784 9783 9781 9781 9779 9777 9777 9777 9776 9776 9775
9719 9717 9714 9712 9710 9708 9707 9705 9704 9703 9702 9702 9702 9702 9701 9701 9702 9702 9703 9704 9706 9707 9709 9710 9712 9714 9716 9717 9718 9719 9721 9723 9725 9727 9728 9729 9730 9732 9734 9736 9738 9739 9740 9740 9740 9740 9742 9743 9745 9747 9748 9750 9752 9754 9756 9757 9759 9760 9762 9763 9763 9764 9765 9766 9767 9769 9770 9771 9770 9770 9770 9770 9770 9771 9770 9769 9768 9767 9766 9763 9762 9760 9759 9758 9757
9712 9710 9708 9706 9704 9702 9700 9699 9698 9697 9696 9696 9696 9695 9695 9694 9695 9695 9696 9697 9699 9700 9701 9702 9704 9706 9707 9708 9709 9711 9712 9714 9715 9717 9718 9719 9720 9722 9724 9726 9727 9728 9728 9728 9728 9729 9731 9732 9734 9735 9736 9738 9740 9742 9743 9745 9746 9748 9749 9750 9750 9750 9751 9753 9754 9756 9756 9756 9756 9755 9755 9756 9756 9756 9756 9754 9753 9753 9751 9750 9748 9745 9744 9743 9742
9706 9704 9702 9700 9698 9696 9694 9693 9692 9691 9690 9690 9690 9689 9689 9688 9688 9689 9689 9690 9691 9693 9694 9695 9697 9698 9699 9699 9701 9702 9703 9705 9706 9708 9708 9708 9710 9713 9715 9715 9715 9717 9717 9718 9718 9719 9720 9721 9723 9724 9725 9727 9728 9730 9731 9733 9734 9736 9737 9738 9738 9737 9737 9740 9742 9743 9743 9742 9741 9741 9741 9741 9740 9740 9740 9740 9739 9738 9737 9736 9734 9731 9729 9728 9727
9700 9698 9697 9694 9692 9690 9689 9687 9686 9685 9684 9684 9684 9683 9683 9682 9682 9682 9683 9684 9685 9685 9687 9688 9689 9690 9691 9691 9692 9694 9695 9696 9697 9698 9698 9699 9701 9703 9704 9704 9705 9707 9708 9708 9708 9709 9709 9710 9712 9713 9714 9716 9717 9719 9720 9721 9723 9724 9725 9726 9726 9725 9725 9727 9729 9730 9730 9729 9728 9727 9727 9726 9726 9726 9726 9725 9724 9723 9722 9721 9719 9717 9716 9714 9713
9695 9693 9691 9689 9687 9685 9683 9682 9680 9679 9679 9678 9678 9677 9677 9676 9676 9676 9676 9677 9678 9679 9679 9680 9681 9682 9683 9683 9684 9685 9686 9687 9688 9688 9688 9690 9693 9693 9694 9695 9696 9697 9698 9699 9699 9699 9700 9701 9701 9703 9704 9705 9706 9707 9709 9710 9711 9712 9713 9714 9713 9713 9713 9714 9714 9715 9716 9716 9715 9714 9713 9713 9712 9713 9712 9711 9710 9709 9708 9707 9706 9704 9703 9702 9700
9690 9688 9686 9684 9682 9680 9678 9676 9675 9674 9673 9672 9672 9671 9671 9670 9670 9670 9670 9671 9671 9672 9672 9673 9674 9675 9675 9676 9676 9677 9678 9678 9679 9679 9679 9681 9683 9683 9684 9685 9686 9687 9688 9689 9690 9690 9690 9691 9692 9692 9693 9694 9695 9696 9697 9698 9699 9700 9701 9701 9701 9700 9700 9701 9700 9701 9702 9702 9701 9702 9702 9701 9700 9700 9700 9699 9698 9697 9695 9695 9694 9693 9691 9689 9689
9685 9683 9681 9679 9677 9675 9673 9671 9670 9668 9667 9666 9666 9665 9665 9664 9664 9663 9664 9664 9665 9665 9666 9666 9666 9667 9668 9669 9668 9668 9669 9669 9670 9670 9670 9672 9673 9673 9674 9675 9676 9677 9678 9679 9679 9680 9680 9681 9681 9682 9683 9683 9684 9684 9685 9686 9686 9687 9688 9688 9688 9688 9689 9689 9689 9689 9689 9688 9688 9689 9690 9689 9688 9688 9687 9686 9686 9685 9684 9683 9682 9681 9679 9678 9678
9680 9678 9676 9674 9672 9670 9669 9667 9665 9663 9662 9661 9660 9659 9659 9658 9658 9657 9657 9657 9658 9659 9659 9659 9659 9659 9660 9661 9661 9661 9661 9661 9661 9661 9662 9662 9663 9664 9664 9665 9666 9667 9667 9668 9669 9670 9670 9670 9671 9672 9673 9673 9673 9673 9673 9674 9675 9675 9676 9676 9676 9675 9676 9677 9677 9677 9677 9677 9677 9677 9677 9676 9676 9675 9674 9673 9673 9672 9672 9671 9671 9669 9668 9666 9665
9675 9672 9670 9669 9667 9665 9664 9662 9660 9659 9657 9656 9655 9654 9653 9652 9652 9651 9651 9651 9651 9651 9652 9652 9652 9652 9652 9652 9652 9653 9653 9653 9653 9653 9653 9654 9654 9654 9655 9656 9656 9657 9657 9658 9659 9660 9661 9661 9661 9662 9662 9663 9663 9663 9663 9663 9663 9664 9665 9665 9664 9664 9664 9665 9666 9666 9666 9665 9665 9665 9664 9664 9664 9663 9662 9662 9661 9660 9659 9659 9658 9657 9656 9655 9653
9670 9668 9665 9663 9662 9660 9659 9657 9656 9654 9653 9651 9650 9649 9648 9647 9646 9646 9645 9644 9644 9644 9644 9645 9645 9645 9645 9644 9644 9644 9645 9645 9645 9645 9645 9645 9645 9645 9646 9646 9647 9647 9648 9648 9648 9649 9650 9651 9651 9652 9652 9653 9653 9653 9653 9653 9653 9654 9654 9654 9654 9654 9654 9655 9655 9656 9655 9654 9654 9655 9654 9653 9652 9651 9651 9651 9650 9649 9648 9647 9646 9645 9644 9643 9641
9666 9663 9661 9659 9657 9655 9653 9652 9650 9649 9648 9646 9645 9644 9643 9642 9641 9640 9639 9639 9638 9638 9638 9638 9638 9638 9638 9637 9637 9637 9637 9637 9637 9637 9637 9637 9637 9637 9637 9637 9638 9638 9639 9639 9639 9640 9641 9641 9642 9642 9643 9643 9643 9644 9644 9643 9643 9644 9644 9644 9644 9644 9644 9645 9645 9645 9645 9643 9643 9644 9644 9642 9642 9641 9640 9639 9639 9638 9637 9636 9634 9633 9631 9630 9629
9661 9659 9656 9654 9652 9650 9649 9647 9645 9644 9643 9641 9640 9639 9637 9636 9635 9634 9633 9633 9632 9632 9632 9631 9631 9632 9632 9631 9630 9630 9630 9629 9629 9629 9629 9630 9630 9630 9630 9630 9630 9630 9631 9631 9631 9632 9632 9633 9633 9633 9634 9635 9635 9635 9635 9634 9634 9634 9634 9634 9634 9635 9635 9634 9634 9634 9634 9633 9632 9633 9632 9632 9631 9630 9629 9628 9628 9626 9625 9624 9623 9622 9620 9619 9617
9656 9654 9652 9650 9648 9646 9644 9642 9641 9639 9638 9636 9635 9633 9632 9631 9630 9628 9627 9626 9626 9625 9625 9625 9624 9624 9624 9624 9624 9624 9624 9623 9623 9622 9622 9622 9622 9622 9622 9622 9622 9622 9622 9622 9623 9623 9624 9624 9624 9624 9625 9626 9625 9626 9626 9625 9625 9625 9625 9624 9624 9624 9624 9624 9623 9623 9623 9622 9622 9621 9621 9621 9620 9620 9619 9618 9617 9617 9615 9614 9613 9612 9611 9609 9608
9651 9649 9647 9645 9643 9641 9639 9637 9636 9634 9633 9631 9630 9628 9627 9626 9624 9623 9621 9620 9619 9618 9618 9617 9617 9617 9617 9617 9616 9616 9616 9616 9616 9615 9615 9615 9615 9615 9614 9614 9614 9614 9614 9614 9614 9615 9615 9616 9616 9616 9616 9616 9616 9616 9617 9616 9616 9616 9616 9615 9614 9614 9614 9615 9614 9613 9613 9613 9612 9611 9611 9611 9611 9610 9609 9609 9608 9607 9606 9605 9604 9603 9602 9600 9599
9646 9644 9641 9640 9638 9636 9635 9633 9631 9629 9627 9626 9624 9623 9621 9620 9619 9617 9616 9615 9613 9612 9612 9611 9610 9610 9610 9610 9609 9608 9608 9608 9608 9607 9607 9607 9607 9607 9607 9607 9607 9607 9606 9606 9606 9607 9607 9607 9608 9608 9608 9607 9607 9607 9608 9607 9607 9607 9607 9607 9606 9605 9605 9606 9605 9604 9604 9604 9603 9602 9602 9602 9601 9600 9600 9599 9598 9598 9597 9596 9595 9594 9592 9591 9589
9640 9638 9636 9634 9632 9631 9629 9627 9626 9624 9622 9620 9618 9617 9615 9614 9613 9611 9610 9609 9607 9606 9605 9605 9604 9603 9603 9603 9603 9602 9601 9601 9600 9600 9600 9599 9599 9599 9599 9599 9599 9599 9598 9598 9598 9598 9598 9598 9598 9599 9598 9598 9598 9598 9599 9599 9599 9599 9598 9598 9598 9597 9596 9596 9596 9595 9595 9595 9594 9594 9593 9592 9591 9591 9590 9589 9588 9588 9587 9586 9585 9584 9582 9580 9578
9635 9633 9631 9629 9627 9625 9623 9621 9620 9618 9617 9615 9613 9611 9609 9608 9607 9605 9604 9602 9601 9600 9599 9598 9597 9596 9596 9595 9595 9595 9594 9594 9593 9593 9592 9592 9592 9591 9591 9591 9591 9591 9590 9590 9590 9590 9590 9590 9590 9589 9589 9588 9589 9589 9590 9591 9591 9590 9589 9589 9589 9589 9588 9587 9587 9586 9586 9585 9585 9584 9583 9582 9582 9581 9580 9579 9579 9578 9577 9576 9574 9573 9571 9569 9567
9630 9627 9625 9623 9621 9619 9617 9615 9613 9611 9610 9608 9607 9605 9603 9602 9600 9599 9598 9596 9595 9594 9592 9591 9590 9589 9588 9588 9587 9587 9587 9586 9586 9585 9585 9585 9585 9584 9584 9583 9583 9583 9582 9582 9582 9582 9582 9582 9582 9581 9580 9580 9580 9581 9581 9582 9581 9581 9580 9580 9580 9580 9579 9579 9578 9578 9577 9576 9575 9575 9574 9573 9573 9572 9571 9570 9570 9569 9568 9566 9564 9563 9561 9559 9558
9624 9622 9620 9618 9615 9613 9611 9609 9607 9605 9603 9601 9600 9598 9597 9595 9594 9592 9591 9590 9589 9587 9586 9585 9584 9583 9582 9581 9580 9580 9579 9579 9578 9578 9578 9578 9578 9577 9577 9576 9575 9575 9575 9575 9575 9575 9575 9574 9574 9574 9573 9573 9573 9573 9573 9573 9572 9572 9572 9572 9572 9571 9571 9571 9570 9569 9569 9568 9567 9566 9565 9565 9564 9563 9563 9562 9561 9559 9558 9557 9555 9554 9552 9550 9548
9619 9616 9614 9612 9610 9608 9605 9603 9601 9599 9597 9594 9592 9591 9589 9588 9587 9585 9584 9583 9582 9581 9580 9578 9577 9576 9575 9574 9573 9573 9572 9572 9571 9571 9570 9570 9570 9570 9569 9568 9568 9568 9568 9568 9568 9568 9568 9568 9567 9567 9567 9566 9566 9565 9565 9565 9565 9565 9564 9564 9564 9563 9563 9562 9562 9561 9561 9560 9559 9559 9558 9557 9557 9556 9555 9554 9552 9551 9549 9548 9546 9545 9543 9541 9539
9613 9610 9608 9606 9604 9602 9599 9597 9595 9593 9590 9588 9586 9584 9582 9581 9579 9578 9576 9575 9574 9573 9572 9571 9570 9569 9568 9567 9566 9566 9565 9564 9564 9563 9563 9563 9563 9563 9562 9561 9561 9561 9561 9561 9561 9561 9561 9561 9560 9560 9560 9559 9559 9558 9558 9558 9557 9557 9557 9556 9556 9555 9555 9554 9554 9553 9553 9552 9552 9551 9551 9550 9550 9548 9547 9546 9544 9543 9541 9540 9538 9536 9533 9531 9529